Location: Boiro
(42.6475°N, 8.8834°W)
Time: 00:33:48
(UTC+01:00)

S-56A Canister/Altair - Visible Passes

Search period start: 30 November 2021 00:00
Search period end: 10 December 2021 00:00
Orbit: 633 x 2500 km, 38.9° (Epoch: 29 November)

Date Brightness Start Highest point End Pass type
(mag) Time Alt. Az. Time Alt. Az. Time Alt. Az.
30 Nov 7.8 06:33:41 44° SSW 06:34:01 44° SSW 06:38:15 10° ESE visible
01 Dec 8.3 06:02:51 38° SSE 06:02:51 38° SSE 06:05:56 10° ESE visible
01 Dec 9.1 08:01:27 10° WSW 08:04:25 17° SSW 08:07:18 10° S visible
02 Dec 9.4 05:32:02 22° ESE 05:32:02 22° ESE 05:33:39 10° ESE visible
02 Dec 8.9 07:29:28 14° WSW 07:32:01 20° SSW 07:35:18 10° SSE visible
03 Dec 10.3 05:01:14 11° ESE 05:01:14 11° ESE 05:01:21 10° ESE visible
03 Dec 8.7 06:58:40 23° SW 06:59:37 24° SSW 07:03:14 10° SSE visible
04 Dec 8.6 06:27:53 28° SSW 06:27:53 28° SSW 06:31:09 10° SSE visible
05 Dec 9.2 05:57:08 22° SSE 05:57:08 22° SSE 05:59:02 10° SE visible
06 Dec 10.0 05:26:23 13° SE 05:26:23 13° SE 05:26:54 10° SE visible
06 Dec 11.3 22:27:16 10° SSW 22:28:49 13° S 22:28:49 13° S visible
07 Dec 9.5 06:53:07 12° SSW 06:53:07 12° SSW 06:54:16 10° SSW visible
07 Dec 11.1 21:54:19 10° S 21:58:12 17° S 21:58:12 17° S visible
08 Dec 9.7 06:22:26 12° S 06:22:26 12° S 06:22:57 10° S visible
08 Dec 10.9 21:21:29 10° S 21:27:36 20° SSE 21:27:36 20° SSE visible
08 Dec 11.4 23:23:39 10° SW 23:25:03 14° SW 23:25:03 14° SW visible
09 Dec 10.8 20:48:48 10° S 20:57:00 20° SE 20:57:00 20° SE visible
09 Dec 11.0 22:50:13 10° SW 22:54:27 22° SSW 22:54:27 22° SSW visible
